[[{"header":{"parameterUnit":"m.s-1","parameterCategory":1,"la1":30.2991,"la2":30.254,"lo1":-89.0895,"lo2":-89.0444,"dy":0.0017,"dx":0.0017,"nx":28,"ny":28,"refTime":"2024-06-22T03:00:00:Z","depth":0,"parameterNumber":2,"parameterNumberName":"U-component_of_WINDS"},"data":[0,0,0,0,0,0,0,0,0,0,0,0,0,0,0,0,0,0,0,0,0,0,0,0,0,0,0,0,0,0,0,0,0,0,0,0,0,0,0,0,0,0,0,0,0,0,0,0,0,0,0,0,0,0,0,0,0,0,0.3452,0.3453,0,0.3529,0.353,0.353,0.3575,0.3575,0.3575,0.3575,0.3652,0.3654,0.3656,0,0,0,0,0,0,0,0,0,0,0,0,0,0.3343,0.3345,0.3452,0.3453,0.3454,0.3529,0.353,0.3531,0.3575,0.3575,0.3575,0.3575,0.3652,0.3654,0.3656,0,0,0,0,0,0,0,0,0,0,0,0,0,0.3402,0.3345,0.3452,0.3485,0.3489,0.3528,0.353,0.3531,0.3575,0.3575,0.3575,0.3575,0.3651,0.3654,0.3656,0.3668,0,0,0.3665,0.3666,0,0,0,0,0,0,0,0,0.3399,0.3406,0.3479,0.3483,0.3487,0.3543,0.3519,0.3577,0.3575,0.3542,0.3575,0.3576,0.3615,0.3621,0.3635,0.3672,0.3675,0.3665,0.3667,0.3668,0.3669,0,0,0,0,0,0,0,0.3394,0.3403,0.3483,0.348,0.3485,0.3496,0.3504,0.353,0.3576,0.3545,0.3548,0.3557,0.3618,0.3632,0.3637,0.3676,0.3665,0.3668,0.3669,0.3671,0.3727,0.3726,0,0,0,0,0,0,0.3385,0.3399,0.348,0.3485,0.3443,0.3497,0.3507,0.3524,0.3576,0.3584,0.3557,0.3559,0.3627,0.3634,0.364,0.3657,0.3668,0.3671,0.3672,0.3727,0.3727,0.3726,0,0,0,0,0,0,0.3383,0.3392,0.3477,0.3443,0.3455,0.3499,0.3518,0.3526,0.354,0.3585,0.3593,0.3563,0.3628,0.3636,0.3661,0.366,0.3672,0.3675,0.3727,0.3727,0.3726,0.3691,0,0,0,0,0,0,0.3379,0.3391,0.3396,0.3443,0.3456,0.3497,0.3518,0.3527,0.3545,0.3549,0.3593,0.3601,0.3628,0.3656,0.3664,0.3664,0.3677,0.3727,0.3727,0.3727,0.3692,0.3689,0.3687,0,0,0,0,0,0.3375,0.3383,0.3396,0.3406,0.3464,0.3497,0.3505,0.3537,0.3545,0.355,0.3579,0.3599,0.3659,0.3659,0.3667,0.3668,0.3727,0.3727,0.3727,0.3694,0.369,0.3687,0,0,0,0,0,0,0.3335,0.339,0.3405,0.3428,0.3458,0.3504,0.3512,0.3532,0.3559,0.3561,0.36,0.3609,0.363,0.3652,0.3651,0.3683,0.3695,0.3697,0.3667,0.3664,0.3662,0.3656,0.3679,0,0,0,0,0,0.3329,0.3352,0.3398,0.3414,0.3428,0.3467,0.3483,0.3505,0.3537,0.355,0.358,0.361,0.3635,0.3651,0.3677,0.3696,0.3706,0.3701,0.3698,0.3696,0.3696,0.3707,0.3705,0.3725,0.3725,0.3725,0,0,0.3316,0.3349,0.3361,0.3407,0.3432,0.3454,0.3478,0.35,0.3517,0.3553,0.3578,0.3602,0.3637,0.3659,0.367,0.3678,0.3693,0.3695,0.3693,0.3695,0.3706,0.3704,0.3703,0.3724,0.3725,0.3725,0,0,0.3305,0.3332,0.3348,0.3373,0.3411,0.3437,0.3441,0.3485,0.3502,0.3528,0.3555,0.3575,0.3619,0.3643,0.3661,0.3658,0.3677,0.3665,0.3651,0.3661,0.3659,0.3658,0.3656,0.3655,0.3665,0.3665,0.3665,0,0.3284,0.3319,0.3353,0.3374,0.3393,0.3427,0.3443,0.3466,0.351,0.3522,0.353,0.3585,0.3612,0.3639,0.3638,0.3652,0.3657,0.366,0.3657,0.3656,0.3655,0.3654,0.3653,0.3663,0.3664,0.3664,0.3664,0,0.3291,0.3315,0.3323,0.3365,0.3385,0.3403,0.344,0.3456,0.3476,0.3501,0.3527,0.356,0.3593,0.3602,0.3622,0.3632,0.3635,0.3649,0.3663,0.3651,0.365,0.365,0.3661,0.3662,0.3662,0.3663,0,0,0.3256,0.3317,0.3319,0.3339,0.3383,0.3402,0.3421,0.3454,0.3467,0.3496,0.3513,0.3549,0.3562,0.3582,0.3605,0.3614,0.3609,0.3627,0.3629,0.3622,0.3621,0.3609,0.3608,0.3622,0.3622,0.3622,0.3618,0,0.325,0.3287,0.3319,0.3344,0.3366,0.3398,0.3415,0.3444,0.3468,0.3489,0.3516,0.354,0.3556,0.3569,0.3579,0.3607,0.3609,0.3608,0.3637,0.3638,0.3626,0.3608,0.3596,0.359,0.3618,0.3618,0.3618,0,0.3248,0.3276,0.3303,0.3345,0.3356,0.337,0.3402,0.3423,0.3456,0.3473,0.3495,0.3519,0.3541,0.3553,0.3582,0.3581,0.3595,0.361,0.3611,0.3614,0.3626,0.361,0.3589,0.3588,0.3618,0.3618,0.3618,0,0.3218,0.3263,0.3285,0.3301,0.3351,0.336,0.3381,0.3415,0.3432,0.346,0.3471,0.3501,0.3517,0.354,0.3571,0.3577,0.3597,0.3612,0.3611,0.361,0.3613,0.3612,0.3593,0.3623,0.3623,0.3623,0.3623,0,0.3208,0.3223,0.3273,0.3286,0.3304,0.334,0.3356,0.338,0.341,0.3428,0.3458,0.3474,0.3515,0.3536,0.3561,0.3581,0.3589,0.3602,0.3608,0.3599,0.3597,0.3608,0.3609,0.3623,0.3623,0.3623,0.3623,0,0.3178,0.3212,0.3238,0.3283,0.3294,0.3305,0.3344,0.3357,0.3383,0.3406,0.3413,0.3453,0.3479,0.3513,0.355,0.3566,0.3584,0.3594,0.3572,0.3576,0.3573,0.3572,0.356,0.3559,0.359,0.3589,0.3589,0,0.3168,0.3181,0.3227,0.3242,0.3262,0.3285,0.3303,0.3339,0.3356,0.3394,0.3403,0.3432,0.3457,0.3497,0.3529,0.3558,0.3568,0.3562,0.3573,0.3563,0.3567,0.3566,0.3567,0.3559,0.3558,0.3558,0.3557,0,0.3148,0.3164,0.3189,0.322,0.324,0.3266,0.3293,0.3303,0.3344,0.3362,0.339,0.3409,0.3446,0.3474,0.3507,0.3528,0.3549,0.3554,0.3555,0.3545,0.3532,0.3538,0.3564,0.3554,0.3554,0.3554,0.3555,0.3555,0.3128,0.314,0.3174,0.3201,0.3225,0.325,0.3265,0.3292,0.3316,0.3349,0.3369,0.3396,0.3428,0.3474,0.3494,0.3515,0.3523,0.3525,0.3525,0.3525,0.3521,0.3529,0.3521,0.3521,0.3521,0.3521,0.3522,0,0.3108,0.3132,0.3156,0.3193,0.3213,0.3233,0.3263,0.3279,0.3302,0.3331,0.3354,0.3386,0.3413,0.3447,0.3476,0.3486,0.3496,0.3492,0.3492,0.3496,0.3513,0.3509,0.3483,0.3483,0.3483,0.3483,0.3483,0.3483,0.31,0.3122,0.3142,0.3176,0.32,0.3226,0.3242,0.3264,0.3287,0.3321,0.3343,0.3366,0.3396,0.3428,0.3453,0.3463,0.3472,0.3464,0.3476,0.3492,0.3495,0.3498,0.3494,0.3466,0.3466,0.3458,0.3458,0.3458]},{"header":{"parameterUnit":"m.s-1","parameterCategory":1,"la1":30.2991,"la2":30.254,"lo1":-89.0895,"lo2":-89.0444,"dy":0.0017,"dx":0.0017,"nx":28,"ny":28,"refTime":"2024-06-22T03:00:00:Z","depth":0,"parameterNumber":3,"parameterNumberName":"V-component_of_WINDS"},"data":[0,0,0,0,0,0,0,0,0,0,0,0,0,0,0,0,0,0,0,0,0,0,0,0,0,0,0,0,0,0,0,0,0,0,0,0,0,0,0,0,0,0,0,0,0,0,0,0,0,0,0,0,0,0,0,0,0,0,3.5337,3.5337,0,3.5331,3.5331,3.5331,3.527,3.5269,3.5267,3.5266,3.526,3.5261,3.5263,0,0,0,0,0,0,0,0,0,0,0,0,0,3.5295,3.5296,3.5337,3.5337,3.5337,3.5331,3.5331,3.5331,3.5271,3.5269,3.5267,3.5265,3.526,3.5261,3.5263,0,0,0,0,0,0,0,0,0,0,0,0,0,3.5304,3.5297,3.5337,3.5306,3.5303,3.5331,3.5331,3.5331,3.5271,3.5269,3.5266,3.5264,3.5259,3.5261,3.5263,3.532,0,0,3.5269,3.5269,0,0,0,0,0,0,0,0,3.5303,3.5305,3.5311,3.5308,3.5305,3.5299,3.5314,3.5327,3.5272,3.5283,3.5266,3.5263,3.5275,3.5275,3.5279,3.532,3.532,3.5269,3.527,3.5271,3.5271,0,0,0,0,0,0,0,3.5303,3.5305,3.5335,3.5311,3.5307,3.5292,3.5291,3.5316,3.5292,3.5282,3.5278,3.5278,3.5273,3.5278,3.5279,3.532,3.5269,3.527,3.5272,3.5272,3.5406,3.5408,0,0,0,0,0,0,3.5307,3.5305,3.5335,3.5334,3.5299,3.5295,3.5293,3.5303,3.5291,3.5287,3.528,3.5275,3.5275,3.5277,3.5278,3.5343,3.5271,3.5273,3.5274,3.5404,3.5407,3.5409,0,0,0,0,0,0,3.5306,3.531,3.5335,3.5319,3.5321,3.5298,3.531,3.5304,3.5309,3.529,3.5285,3.5289,3.5274,3.5276,3.531,3.5343,3.5273,3.5275,3.5401,3.5405,3.5408,3.5475,0,0,0,0,0,0,3.5305,3.531,3.5332,3.532,3.5322,3.5367,3.5312,3.5306,3.5312,3.5306,3.5297,3.5293,3.5272,3.5307,3.5312,3.5344,3.5277,3.5398,3.5402,3.5407,3.547,3.5481,3.549,0,0,0,0,0,3.5304,3.5351,3.5333,3.5337,3.5348,3.5369,3.537,3.5345,3.5315,3.5337,3.5324,3.5294,3.5339,3.5312,3.5316,3.5349,3.5396,3.5401,3.5406,3.5466,3.5479,3.549,0,0,0,0,0,0,3.5368,3.5349,3.5329,3.5374,3.5373,3.5359,3.5385,3.536,3.5368,3.5361,3.5329,3.5328,3.5367,3.5362,3.5332,3.5403,3.5362,3.5368,3.5405,3.5418,3.5427,3.5427,3.5278,0,0,0,0,0,3.5387,3.5405,3.5388,3.5429,3.543,3.5408,3.5416,3.5396,3.5395,3.5394,3.5384,3.5384,3.5398,3.5408,3.542,3.547,3.5466,3.5495,3.5505,3.5513,3.5518,3.5544,3.5556,3.5427,3.5427,3.5427,0,0,3.5427,3.5419,3.5433,3.5442,3.5439,3.5459,3.5408,3.5431,3.5445,3.5398,3.5429,3.5422,3.542,3.5462,3.548,3.5459,3.5553,3.552,3.5527,3.5528,3.555,3.5563,3.5573,3.5431,3.543,3.5429,0,0,3.5509,3.5506,3.5539,3.5538,3.5535,3.5519,3.5528,3.5517,3.551,3.5541,3.5506,3.5522,3.5547,3.5547,3.555,3.5632,3.5604,3.5637,3.5688,3.5713,3.5723,3.5732,3.576,3.5771,3.5643,3.5643,3.5643,0,3.5559,3.5587,3.556,3.5585,3.5589,3.5548,3.5581,3.5581,3.5582,3.5586,3.5562,3.5592,3.5588,3.5629,3.5649,3.5653,3.5661,3.5637,3.5724,3.5733,3.5741,3.5767,3.5778,3.5647,3.5647,3.5646,3.5646,0,3.5648,3.5668,3.5696,3.5697,3.5705,3.5735,3.5711,3.5723,3.5703,3.569,3.5722,3.5715,3.5724,3.5733,3.5714,3.5771,3.5758,3.573,3.5687,3.5757,3.5781,3.5792,3.5653,3.5651,3.565,3.5649,0,0,3.577,3.5756,3.5766,3.5766,3.576,3.5774,3.5802,3.5811,3.5821,3.5823,3.5844,3.5867,3.584,3.5844,3.5824,3.5846,3.5911,3.5815,3.5815,3.5832,3.5972,3.5993,3.6005,3.5893,3.5895,3.5896,3.5972,0,3.5848,3.5893,3.5869,3.5918,3.5935,3.5896,3.592,3.5918,3.5907,3.592,3.5908,3.5924,3.5889,3.5891,3.5911,3.5899,3.5938,3.5893,3.5912,3.5913,3.5912,3.6018,3.6039,3.6111,3.5982,3.5983,3.5984,0,3.5945,3.5951,3.6001,3.5991,3.5997,3.6019,3.6025,3.6038,3.6036,3.6026,3.603,3.6005,3.6031,3.599,3.6024,3.5994,3.6001,3.5996,3.5998,3.5998,3.5952,3.6019,3.6134,3.6144,3.5999,3.5998,3.5997,0,3.6027,3.6048,3.608,3.6082,3.6071,3.6087,3.6083,3.6078,3.6085,3.609,3.6094,3.6103,3.6107,3.6115,3.6093,3.6065,3.613,3.6087,3.6122,3.6123,3.6136,3.6135,3.6252,3.6143,3.6143,3.6143,3.6142,0,3.6116,3.6148,3.6117,3.6137,3.6171,3.6143,3.6178,3.617,3.6166,3.6183,3.6151,3.6168,3.6138,3.6152,3.6136,3.6166,3.6169,3.6162,3.6156,3.6164,3.6164,3.6166,3.616,3.6145,3.6145,3.6144,3.6144,0,3.6213,3.6194,3.6226,3.6213,3.621,3.6236,3.6225,3.6242,3.6229,3.6252,3.6256,3.6235,3.625,3.6229,3.6242,3.6231,3.6272,3.626,3.6273,3.6269,3.6305,3.6301,3.6426,3.644,3.6323,3.6324,3.6325,0,3.6271,3.6294,3.6283,3.6292,3.629,3.6306,3.6312,3.6286,3.6294,3.6293,3.6311,3.6323,3.6331,3.6357,3.6343,3.6353,3.634,3.6383,3.6341,3.6347,3.6339,3.6337,3.6339,3.6391,3.6392,3.6393,3.6394,0,3.6374,3.6363,3.6374,3.6381,3.639,3.6394,3.6397,3.6406,3.6378,3.6389,3.6404,3.641,3.6423,3.6435,3.6441,3.6437,3.6411,3.6408,3.6416,3.6423,3.6429,3.6425,3.6295,3.6405,3.6404,3.6403,3.6402,3.6402,3.6452,3.647,3.6466,3.6478,3.6477,3.648,3.6496,3.6485,3.6496,3.6504,3.6488,3.6507,3.6504,3.6509,3.6508,3.6522,3.6503,3.6516,3.6518,3.6522,3.6526,3.6428,3.6523,3.6523,3.6522,3.6522,3.6522,0,3.6552,3.6547,3.6559,3.6563,3.6573,3.6548,3.6549,3.6559,3.6576,3.6575,3.6584,3.66,3.6612,3.6599,3.6609,3.6622,3.661,3.6625,3.6623,3.6623,3.6543,3.6535,3.6635,3.6635,3.6635,3.6635,3.6635,3.6635,3.6606,3.6635,3.6624,3.6653,3.6648,3.6665,3.6668,3.667,3.6669,3.6689,3.6698,3.669,3.6684,3.6693,3.6703,3.6699,3.6703,3.6722,3.6714,3.664,3.6628,3.6618,3.6609,3.6724,3.6724,3.6792,3.6792,3.6793]}]]